CDT,Max TemperatureF,Mean TemperatureF,Min TemperatureF,Max Dew PointF,MeanDew PointF,Min DewpointF,Max Humidity, Mean Humidity, Min Humidity, Max Sea Level PressureIn, Mean Sea Level PressureIn, Min Sea Level PressureIn, Max VisibilityMiles, Mean VisibilityMiles, Min VisibilityMiles, Max Wind SpeedMPH, Mean Wind SpeedMPH, Max Gust SpeedMPH,PrecipitationIn, CloudCover, Events, WindDirDegrees
2013-3-1,43,38,33,36,32,30,96,85,73,30.08,30.04,30.01,10,6,2,12,5,16,0.08,8,Rain-Snow,302
2013-3-2,34,32,30,30,28,25,89,82,75,30.17,30.10,30.03,10,4,1,13,6,17,0.02,8,Snow,328
2013-3-3,41,34,26,25,20,14,81,58,34,30.19,30.15,30.11,10,10,4,13,5,17,T,3,Snow,297
2013-3-4,56,41,25,31,25,20,81,57,32,30.17,30.04,29.88,10,10,10,13,6,16,T,5,,113
2013-3-5,53,43,32,52,41,22,93,72,50,29.97,29.80,29.67,10,5,1,25,9,36,0.68,8,Rain-Snow,280
2013-3-6,37,35,32,28,26,25,78,71,64,30.34,30.15,29.96,10,9,2,22,11,31,T,8,Snow,310
2013-3-7,41,37,32,27,26,24,72,66,59,30.42,30.38,30.34,10,10,10,12,5,13,0.00,8,,47
2013-3-8,55,41,26,29,27,23,85,60,35,30.46,30.38,30.31,10,10,8,13,6,17,0.00,0,,64
2013-3-9,63,49,35,33,31,28,76,52,27,30.30,30.17,30.03,10,10,10,14,5,20,0.00,2,,140
2013-3-10,73,61,49,52,38,31,93,60,26,30.04,29.92,29.80,10,10,7,26,11,33,0.11,2,Rain,174
2013-3-11,57,49,40,54,45,31,96,79,62,29.99,29.82,29.77,10,6,2,21,10,25,1.19,8,Rain,241
2013-3-12,53,44,35,30,27,24,75,55,35,30.14,30.08,29.99,10,10,10,15,7,20,0.00,4,,277
2013-3-13,43,35,26,27,21,17,60,50,40,30.44,30.31,30.15,10,9,2,20,9,29,T,6,Snow,306
2013-3-14,46,35,23,34,23,17,92,65,37,30.44,30.36,30.22,10,10,8,18,3,23,0.01,3,Rain,186
2013-3-15,73,51,28,45,36,27,92,65,37,30.19,30.01,29.81,10,8,0,18,6,24,0.00,1,Fog,218
2013-3-16,75,63,50,49,46,40,68,55,41,29.96,29.83,29.76,10,10,7,24,11,32,T,2,,266
2013-3-17,50,46,41,43,40,37,96,86,76,30.02,29.95,29.82,10,6,2,17,9,23,0.30,8,Rain,53
2013-3-18,61,51,40,54,46,35,89,80,70,29.99,29.76,29.68,10,6,1,23,8,35,1.62,7,Rain-Thunderstorm,222
2013-3-19,53,43,33,35,21,8,92,56,19,30.21,30.14,30.01,10,10,5,16,6,22,0.00,1,,291
2013-3-20,51,39,27,26,20,12,72,55,37,30.19,30.13,30.07,10,10,10,20,7,25,0.00,1,,305
2013-3-21,40,30,20,16,14,11,73,53,33,30.11,30.07,30.01,10,10,10,15,5,20,0.00,0,,315
2013-3-22,44,36,28,26,20,16,69,52,34,30.09,30.05,30.02,10,10,10,10,3,14,0.00,7,,85
2013-3-23,58,49,40,36,31,25,61,51,40,30.02,29.93,29.77,10,10,10,15,7,17,0.02,6,,58
2013-3-24,51,44,36,45,39,27,92,81,70,29.74,29.53,29.41,10,6,1,29,11,41,0.54,8,Rain-Thunderstorm,326
2013-3-25,40,37,33,32,30,26,89,77,64,30.12,29.89,29.65,10,3,0,26,14,36,0.03,8,Fog-Snow,278
2013-3-26,42,38,33,30,28,25,89,70,51,30.35,30.21,30.11,10,8,1,14,6,20,0.01,8,Snow,296
2013-3-27,51,39,26,25,23,21,81,57,32,30.41,30.36,30.32,10,10,10,14,3,17,0.00,0,,303
2013-3-28,59,45,31,31,26,18,92,57,21,30.41,30.35,30.30,10,10,8,10,2,20,0.00,3,,336
2013-3-29,50,46,42,46,41,31,93,76,58,30.35,30.27,30.22,10,8,2,9,2,16,0.16,8,Rain,104
2013-3-30,59,52,44,51,46,42,100,79,57,30.23,30.08,29.91,10,6,2,10,4,16,0.43,7,Rain,109
2013-3-31,61,55,48,52,49,46,93,77,60,29.95,29.90,29.86,10,9,5,16,6,25,0.01,6,Rain,238